sat.trackr.live / text

‹ back to catalog

EXPRESS-AM44

NORAD 33595 · 2009-007A

PAYLOAD ACTIVE UNKNOWN

§ Identity

Operator
Country
CIS
Launch date
2009-02-11
Launch site
TYMSC
Launch vehicle
Mass (kg)
RCS (m²)
54.10

Purposes: comms

External: N2YO · Heavens-Above · Gunter

§ Orbital elements

Epoch: 2026-09-19T20:45:28.599840Z

Period
1,436.09 min
Inclination
3.6999°
Eccentricity
0.0003395
Mean motion
1.00272583 rev/d
Perigee alt
35,772.1 km
Apogee alt
35,800.7 km
Semi-major
42,164.5 km
B*
0.0000e+0
RAAN
77.1691°
Arg perigee
93.8252°
Mean anomaly
128.1617°
Rev number
5,323

§ Raw data

EXPRESS-AM441 33595U 09007A   26262.86491435 -.00000092  00000+0  00000+0 0  99992 33595   3.6999  77.1691 0003395  93.8252 128.1617  1.00272583 53230

JSON: /api/v1/satellites/33595 · /tle

For live sub-satellite position, see the globe view (requires WebGL).

§ Visibility from observer

Set your observer location to see the next 7 days of passes ≥ 10°. The values pass through the URL so the page stays shareable.

No JS? Fill the form by hand. The geolocation button needs JavaScript.